Regional Weather Roundup
Issued by NWS

Home | Current Version | Previous Version | Graphics & Text | Print | Product List | Glossary On
Versions: 1 2 3 4 5 6 7 8 9 10 11 12 13 14 15 16 17 18 19 20 21 22 23 24 25 26 27 28 29 30 31 32 33 34 35 36 37 38 39 40 41 42 43 44 45 46 47 48 49 50
000
ASUS43 KLSX 301157
RWRMO

WEATHER SUMMARY FOR MISSOURI
NATIONAL WEATHER SERVICE SPRINGFIELD MO
700 AM CDT SAT JUL 30 2016

NOTE: "FAIR" INDICATES FEW OR NO CLOUDS BELOW 12,000 FEET WITH NO
       SIGNIFICANT WEATHER AND/OR OBSTRUCTIONS TO VISIBILITY.
       CURRENT SKY AND/OR WEATHER CONDITIONS ARE NOT AVAILABLE FOR
       CHILLICOTHE AND FARMINGTON.

MOZ001>031-035>038-043-044-053-054-301300-
...NORTHERN AND WESTERN MISSOURI...

CITY           SKY/WX    TMP DP  RH WIND       PRES   REMARKS
KANSAS CTY INT PTCLDY    65  61  87 NE8       30.02R
6HR MIN TEMP:  62; 6HR MAX TEMP:  69;

LEE`S SUMMIT   PTCLDY    67  64  90 NE3       30.02S
6HR MIN TEMP:  66; 6HR MAX TEMP:  70;

ST JOSEPH      PTCLDY    61  60  97 CALM      30.02S
6HR MIN TEMP:  59; 6HR MAX TEMP:  66;

KIRKSVILLE     CLOUDY    66  64  94 W3        30.02R

$$
MOZ066>068-077>081-088>096-101>105-301300-
...SOUTHWEST MISSOURI...

CITY           SKY/WX    TMP DP  RH WIND       PRES   REMARKS
SPRINGFIELD    CLEAR     68  66  93 CALM      30.01R
6HR MIN TEMP:  68; 6HR MAX TEMP:  72;

JOPLIN         CLEAR     69  68  96 CALM      30.01R
6HR MIN TEMP:  68; 6HR MAX TEMP:  72;

BRANSON        CLEAR     68  68 100 CALM      30.03R FOG

$$
MOZ032>034-039>042-045>050-055>058-069>072-301300-
...CENTRAL MISSOURI...

CITY           SKY/WX    TMP DP  RH WIND       PRES   REMARKS
COLUMBIA       NOT AVBL
JEFFERSON CITY PTCLDY    67  65  93 CALM      29.99R
6HR MIN TEMP:  66; 6HR MAX TEMP:  70;

ROLLA          CLEAR     66  65  96 CALM      30.00R
6HR MIN TEMP:  64; 6HR MAX TEMP:  69;

SEDALIA        CLEAR     66  64  93 N3        30.02R
6HR MIN TEMP:  65; 6HR MAX TEMP:  72;

OSAGE BEACH    CLOUDY    70  70 100 CALM      30.01R FOG

$$
MOZ051-052-059>065-301300-
...EAST CENTRAL MISSOURI...

CITY           SKY/WX    TMP DP  RH WIND       PRES   REMARKS
ST LOUIS INTL  PTCLDY    73  67  81 W3        29.98R
6HR MIN TEMP:  71; 6HR MAX TEMP:  76;


$$
MOZ072>076-082>087-097>100-106>115-301300-
...SOUTH CENTRAL AND SOUTHEAST MISSOURI...

CITY           SKY/WX    TMP DP  RH WIND       PRES   REMARKS
CAPE GIRARDEAU FOG       70  69  97 SW3       29.97R VSB 1/4
6HR MIN TEMP:  69; 6HR MAX TEMP:  70;

POPLAR BLUFF   FOG       71  70  96 SW3       29.98R VSB 3/4
6HR MIN TEMP:  71; 6HR MAX TEMP:  71;

WEST PLAINS    MOCLDY    70  66  87 CALM      30.04R
6HR MIN TEMP:  68; 6HR MAX TEMP:  70;


$$



USA.gov is the U.S. government's official web portal to all federal, state and local government web resources and services.